EHI
0 0 0 0 0 0 0 0 0 1 5 12 17 17 16 14 12 11 13 18 22 22 20 22 21 18 15 11 8 5 3 3 5 6 7 7 6 6 6 6 5 4 3 3
0 0 0 0 0 0 0 0 0 1 6 12 16 17 17 15 12 12 15 17 19 18 16 15 14 12 9 8 6 5 3 3 4 6 7 6 5 6 5 4 4 3 3 3
0 0 0 0 0 0 0 1 1 2 6 11 16 20 22 19 16 16 17 15 15 15 13 11 9 6 4 3 4 4 3 3 5 6 6 5 5 5 4 3 3 3 2 1
0 0 0 0 0 0 0 1 2 3 6 11 18 24 25 21 19 19 18 15 14 14 13 10 8 6 4 3 3 4 4 5 7 7 6 5 5 4 3 2 2 2 1 0
0 0 0 0 0 0 0 1 2 4 8 12 15 19 20 17 16 18 18 16 13 11 10 10 9 8 6 5 4 4 6 8 8 8 7 6 5 3 3 3 2 1 1 1
0 0 0 0 0 0 0 1 3 6 9 9 8 12 15 12 10 13 16 15 12 9 8 9 9 7 5 5 4 2 4 6 6 7 7 6 4 4 4 4 2 1 1 2
0 0 0 0 0 1 4 6 8 11 9 7 7 11 13 10 7 8 10 11 10 9 9 9 8 5 3 3 2 1 1 2 3 5 6 5 5 4 4 3 2 1 1 1
0 0 0 1 2 5 11 14 16 17 13 9 9 10 9 7 5 5 6 7 9 10 9 8 6 4 2 1 1 1 0 0 2 5 5 5 5 5 4 3 2 1 1 2
1 0 1 2 4 8 12 14 15 16 13 7 4 4 3 3 3 4 4 5 8 10 9 7 5 3 2 1 1 2 2 2 4 5 6 5 5 4 3 3 3 3 3 3
2 1 1 2 3 6 8 8 8 8 7 3 0 0 1 1 1 2 3 5 8 10 10 8 5 3 2 3 3 4 4 5 6 6 5 4 2 2 2 2 2 3 3 2
2 1 1 1 1 3 3 3 3 2 1 1 0 0 0 1 1 1 1 3 5 7 7 6 4 3 3 4 5 5 6 6 6 4 2 1 0 0 1 1 1 1 1 1
1 0 0 0 0 1 1 1 1 1 1 1 1 1 1 1 0 0 0 1 2 2 2 2 2 3 3 4 5 4 4 3 3 1 0 0 0 0 0 0 0 0 0 0
0 0 0 0 0 0 0 0 0 0 0 1 2 2 1 0 0 0 0 0 0 0 0 0 1 1 2 3 4 3 1 1 0 0 0 0 0 0 0 0 0 0 0 0
0 0 0 0 0 0 0 0 0 0 0 0 1 2 1 0 0 0 0 0 0 0 0 0 0 0 1 1 1 1 0 0 0 0 0 0 0 0 0 0 0 0 0 0
1 0 0 1 0 0 0 0 0 0 0 0 0 0 0 0 0 0 0 0 0 0 0 0 0 0 0 0 0 0 0 0 0 0 0 0 0 0 0 0 0 0 0 0
1 0 0 0 0 0 0 0 0 0 0 0 0 0 0 0 0 0 0 0 0 0 0 0 0 0 0 0 0 0 0 0 0 0 0 0 0 0 0 0 0 0 0 0
1 0 0 0 0 0 0 0 0 0 0 0 0 0 0 0 0 0 0 0 0 0 0 0 0 0 0 0 0 0 0 0 0 0 0 0 0 0 0 0 0 0 0 0
0 0 0 0 0 0 0 0 0 0 0 0 0 0 0 0 0 0 0 0 0 0 0 0 0 0 0 0 0 0 0 0 0 0 0 0 0 0 0 0 0 0 0 0
0 0 0 0 0 0 0 0 0 0 0 0 0 0 0 0 0 0 0 0 0 0 0 0 0 0 0 0 0 0 0 0 0 0 0 0 0 0 0 0 0 0 0 0
0 0 0 0 0 0 0 0 0 0 0 0 0 0 0 0 0 0 0 0 0 0 0 0 0 0 0 0 0 0 0 0 0 0 0 0 0 0 0 0 0 0 0 0
0 0 0 0 0 0 0 0 0 0 0 0 0 0 0 0 0 0 0 0 0 0 0 0 0 0 0 0 0 0 0 0 0 0 0 0 0 0 0 0 0 0 0 0
0 0 0 0 0 0 0 0 0 0 0 0 0 0 0 0 0 0 0 0 0 0 0 0 0 0 0 0 0 0 0 0 0 0 0 0 0 0 0 0 0 0 0 0
0 0 0 0 0 0 0 0 0 0 0 0 0 0 0 0 0 0 0 0 0 0 0 0 0 0 0 0 0 0 0 0 0 0 0 0 0 0 0 0 0 0 0 0
0 0 0 0 0 0 0 0 0 0 0 0 0 0 0 0 0 0 0 0 0 0 0 0 0 0 0 0 0 0 0 0 0 0 0 0 0 0 0 0 0 0 0 0
0 0 0 0 0 0 0 0 0 0 0 0 0 0 0 0 0 0 0 0 0 0 0 0 0 0 0 0 0 0 0 0 0 0 0 0 0 0 0 0 0 0 0 0
0 0 0 0 0 0 0 0 0 0 0 0 0 0 0 0 0 0 0 0 0 0 0 0 0 0 0 0 0 0 0 0 0 0 0 0 0 0 0 0 0 0 0 0
0 0 0 0 0 0 0 0 0 0 0 0 0 0 0 0 0 0 0 0 0 0 0 0 0 0 0 0 0 0 0 0 0 0 0 0 0 0 0 0 0 0 0 0
Wind_Speed
7 5 10 12 13 13 13 11 9 6 5 6 6 6 6 7 7 7 7 7 7 6 5 4 4 4 4 3 3 3 4 4 4 4 4 4 4 4 4 4 5 5 5 5
8 7 9 10 11 12 10 9 7 5 3 5 6 6 7 6 7 8 7 6 6 6 5 4 4 4 4 3 3 3 4 4 4 4 5 5 5 5 5 4 4 4 5 5
10 10 11 12 10 10 9 6 7 6 4 8 7 7 6 6 6 6 6 6 5 5 4 4 3 3 3 3 4 4 4 4 5 5 5 5 5 5 5 5 5 5 5 5
8 10 14 4 3 4 5 4 2 3 6 7 7 8 6 5 5 5 5 5 5 4 4 4 4 4 4 4 4 4 4 4 5 6 6 6 6 6 6 5 5 6 5 5
8 12 9 6 6 6 6 5 3 5 8 9 10 10 8 6 5 5 4 4 4 4 4 4 4 4 4 5 5 5 4 4 5 6 6 7 6 6 6 6 6 6 6 6
9 12 10 6 8 4 4 6 5 6 8 8 8 6 6 6 6 6 5 4 4 5 5 5 4 4 4 5 5 5 4 4 5 5 6 7 7 6 6 6 6 6 7 7
11 10 3 7 7 7 8 4 7 6 6 6 2 4 8 7 6 6 6 6 5 5 5 4 4 4 5 5 5 4 5 5 5 5 6 6 6 6 6 6 7 8 9 8
9 11 5 6 7 4 4 6 6 5 5 5 8 9 8 7 7 6 6 6 6 6 6 5 4 6 7 6 5 5 6 5 5 5 5 5 6 6 6 7 8 8 8 8
1 3 7 4 5 6 4 5 4 5 6 8 9 8 8 7 7 6 6 6 6 7 7 6 5 6 7 6 5 6 7 7 6 6 5 5 6 6 6 6 6 6 6 6
4 6 6 5 5 5 4 4 4 5 7 8 9 8 8 7 6 6 6 6 6 7 7 7 6 7 7 6 6 8 8 7 7 7 7 6 5 5 5 5 6 6 6 6
4 6 7 6 5 5 5 5 5 6 7 8 9 9 8 7 7 6 6 6 7 7 8 8 7 8 7 6 7 9 9 8 8 9 9 10 10 9 8 8 6 5 6 6
3 6 4 7 5 5 6 7 7 9 9 8 9 9 9 8 7 7 8 8 8 9 9 9 9 9 8 7 8 9 9 8 7 7 8 9 10 12 19 16 18 18 15 11
6 7 8 8 7 6 7 8 8 9 9 9 9 10 10 9 9 8 9 9 10 10 10 9 9 10 8 8 8 9 9 8 7 7 7 8 9 10 11 13 18 18 16 15
8 8 8 7 7 8 9 10 10 10 10 9 10 10 11 11 10 10 10 10 10 11 10 10 10 10 8 9 9 10 10 9 8 7 7 8 8 8 8 9 9 10 11 12
5 5 8 9 10 10 11 12 12 12 11 11 10 11 12 12 11 11 10 10 11 11 11 11 11 10 9 9 10 10 9 8 8 8 8 8 8 8 8 9 9 8 8 8
8 10 11 11 11 11 12 13 13 12 12 12 12 11 12 12 12 11 10 10 11 11 10 10 10 9 9 9 10 9 9 12 9 7 8 7 7 7 7 7 7 7 6 6
11 11 12 12 12 12 11 12 12 13 13 13 13 12 13 13 13 12 11 11 11 11 10 10 10 9 8 8 8 8 8 9 9 8 7 7 7 7 7 6 7 7 7 7
8 10 12 13 13 13 13 12 12 13 13 13 13 12 12 12 13 12 11 11 12 12 11 10 9 9 9 9 7 7 7 7 7 7 7 7 6 6 6 7 7 7 7 6
10 12 13 14 14 13 13 13 13 12 13 13 13 12 12 12 12 11 11 10 11 11 9 9 7 8 9 8 6 6 7 8 7 7 7 7 6 6 6 6 6 6 5 5
13 14 15 15 14 14 14 13 13 12 12 13 13 13 13 12 11 10 10 9 7 7 7 7 7 8 8 7 3 6 7 8 7 7 6 6 6 6 6 6 6 5 5 5
16 16 16 15 14 14 14 14 13 13 12 13 13 13 13 11 10 9 9 9 8 7 8 6 6 7 7 5 4 7 7 7 7 6 6 6 6 6 5 5 5 5 4 4
16 16 16 16 15 14 13 12 13 13 13 12 13 12 12 11 10 9 9 7 7 4 5 6 7 8 5 3 6 6 6 6 6 6 6 5 5 5 5 4 4 4 4 4
15 15 16 15 15 14 13 12 13 12 12 12 12 11 10 8 7 7 8 7 7 5 5 8 8 6 2 3 6 6 6 6 5 5 5 5 4 4 4 4 3 3 3 3
14 15 15 14 14 14 14 13 12 10 11 11 10 10 9 8 7 7 8 8 7 7 8 8 6 3 1 4 5 5 5 5 4 4 5 4 4 4 3 3 3 3 3 3
14 14 15 15 13 11 12 13 13 12 11 9 10 9 7 6 7 8 8 9 8 7 9 8 4 1 2 5 5 4 4 4 4 3 4 3 3 4 3 3 3 3 2 2
12 11 10 10 10 10 10 9 9 9 9 9 8 7 7 7 9 8 7 9 10 7 7 7 5 3 4 5 5 4 4 4 3 2 3 3 3 3 3 3 3 2 2 2
12 10 9 9 9 9 8 8 9 9 8 9 9 8 8 8 8 8 8 8 7 6 5 5 4 4 4 4 4 3 3 3 2 2 2 2 2 2 2 2 1 1 0 1
Wind_Direction
236 207 194 199 199 204 221 239 244 226 205 160 157 149 140 135 134 134 135 134 128 120 112 109 109 114 119 126 140 146 147 142 145 144 145 145 148 150 153 159 169 172 173 171
207 201 206 208 201 201 213 227 235 222 172 115 124 130 133 136 143 140 136 131 127 122 115 110 105 107 110 121 136 137 136 136 129 128 130 135 136 138 139 143 153 150 152 149
201 189 198 206 202 203 202 211 227 222 142 134 136 129 128 134 139 136 131 131 130 124 117 115 113 109 110 117 125 128 130 132 132 131 124 124 127 124 122 122 123 121 121 120
196 187 216 145 128 213 200 186 208 113 126 131 121 112 104 109 120 120 122 128 129 127 121 120 117 117 119 123 126 127 129 131 130 127 125 120 116 118 118 112 108 103 100 102
209 211 199 150 171 185 191 174 167 152 135 126 128 129 107 90 92 94 97 108 117 118 115 111 109 115 122 123 125 125 126 130 132 132 131 129 124 118 117 114 109 104 101 96
219 226 218 164 144 161 209 184 150 155 151 151 174 184 118 101 91 87 84 95 106 108 105 102 102 113 119 121 120 118 119 123 127 130 131 129 127 125 120 118 115 110 98 90
219 225 195 107 138 177 214 132 130 148 155 167 164 64 103 107 93 86 88 92 98 99 94 88 95 109 108 106 106 106 107 107 111 119 125 128 127 123 121 118 110 103 97 89
219 223 176 126 173 192 68 95 124 133 139 125 105 106 111 106 101 97 94 94 98 96 86 77 82 102 100 96 96 99 99 99 101 105 112 117 118 119 121 118 113 108 104 95
335 58 76 80 73 69 93 115 118 121 124 127 125 123 118 109 101 95 91 92 95 97 90 79 75 86 93 91 98 100 97 95 94 95 98 103 113 121 120 115 114 112 109 104
128 110 108 98 91 85 89 103 115 126 130 134 130 127 121 113 104 98 92 92 96 97 91 81 72 73 80 84 92 97 96 96 96 95 90 80 73 80 92 98 107 109 106 102
134 128 134 121 98 90 95 105 117 120 125 128 127 124 120 114 109 105 101 96 93 93 91 85 82 80 82 89 97 97 96 94 92 91 91 83 71 55 62 54 49 81 94 95
131 137 138 120 112 111 112 109 112 115 113 113 120 120 115 109 106 104 102 98 95 91 90 86 84 82 78 84 95 101 99 97 97 99 98 99 97 81 59 63 60 58 57 72
94 105 99 112 112 108 108 108 107 109 111 111 112 113 113 108 104 101 101 99 97 94 92 88 82 79 77 83 89 92 95 95 96 98 103 104 105 104 98 79 68 63 63 69
116 117 119 122 116 113 111 108 106 104 103 107 110 110 109 106 103 100 99 99 98 95 92 90 87 82 82 87 91 94 96 94 97 96 95 95 97 101 103 104 100 87 74 73
139 124 124 123 121 119 118 117 111 107 106 106 107 109 108 105 101 96 95 98 98 94 91 90 88 85 86 92 94 95 96 94 90 90 91 92 94 95 95 95 95 98 102 95
128 122 126 127 126 127 126 123 118 116 116 113 109 107 105 103 100 98 96 96 97 94 92 91 88 89 93 96 96 94 90 88 90 94 92 92 92 93 94 97 97 95 92 92
144 144 142 137 135 132 128 125 122 122 119 116 114 112 110 107 103 98 96 94 91 90 89 91 91 93 96 98 100 102 103 102 103 99 95 94 94 94 94 94 94 92 84 61
151 148 147 142 138 132 127 124 121 121 121 120 118 114 112 110 107 104 102 102 98 90 84 86 90 94 95 96 96 100 103 104 101 98 99 97 98 101 102 101 101 100 102 101
137 137 135 134 134 131 128 125 123 122 121 120 118 114 110 107 106 107 106 104 101 96 89 88 91 98 95 93 99 108 106 106 105 103 104 110 113 105 103 102 100 99 98 94
131 131 131 131 131 129 127 127 125 122 123 123 120 117 112 110 109 108 104 94 84 89 100 100 105 97 100 97 95 105 105 107 108 110 112 110 105 103 101 98 97 96 92 89
135 134 134 134 132 129 128 129 128 127 127 127 124 120 118 117 116 115 113 102 90 93 103 106 102 102 102 104 109 104 106 109 111 112 111 107 105 103 101 98 96 94 92 91
137 137 136 134 132 130 131 132 132 131 129 127 124 122 122 120 116 107 96 96 105 104 114 104 95 84 85 114 106 102 104 105 105 105 104 104 105 103 100 97 93 91 88 85
136 137 136 135 134 132 132 132 133 131 130 129 129 129 124 118 117 118 113 108 111 102 95 89 88 87 74 110 100 103 103 104 105 107 107 107 106 106 104 101 96 95 91 91
136 136 133 132 133 133 133 132 128 125 123 121 121 123 123 120 113 106 105 104 96 102 96 93 94 88 138 111 105 105 106 109 111 113 113 113 110 106 104 105 104 100 97 93
134 133 134 136 136 133 131 131 128 126 123 119 122 124 119 112 114 112 112 114 118 117 111 110 109 132 132 105 107 106 98 82 77 92 105 111 119 118 117 111 105 102 100 97
133 134 134 135 130 133 137 137 135 134 132 129 124 121 116 115 117 119 122 125 123 121 121 127 133 153 114 108 106 104 107 119 124 114 107 121 116 112 112 113 121 114 106 92
126 124 125 126 129 134 135 136 135 135 134 132 129 128 128 128 128 129 129 130 133 132 126 128 127 122 117 116 113 114 113 110 109 117 127 123 117 118 121 132 129 118 132 109